Regional Weather Roundup
Issued by NWS Goodland, KS

Home | Current Version | Previous Version | Graphics & Text | Print | Product List | Glossary On
Versions: 1 2 3 4 5 6 7 8 9 10 11 12 13 14 15 16 17 18 19 20 21 22 23 24 25 26 27 28 29 30 31 32 33 34 35 36 37 38 39 40 41 42 43 44 45 46 47 48 49 50
000
ASUS43 KGLD 231659
RWRGLD

GOODLAND FORECAST AREA HOURLY WEATHER ROUNDUP
NATIONAL WEATHER SERVICE GOODLAND KS
1100 AM MDT FRI JUN 23 2017

...OFFICIAL OBSERVATIONS...

CITY           SKY/WX    TMP DP  RH WIND       PRES   REMARKS
GOODLAND KS    CLOUDY    63  45  51 N13G21    30.22R
HILL CITY KS   SUNNY     70  46  42 N17G25    30.14F
IMPERIAL NEB   SUNNY     71  42  35 N12G22    30.20S
MCCOOK NEB     MOSUNNY   72  45  37 N16G26    30.15F
AKRON CO       CLOUDY    55  40  56 NW7       30.29R
BURLINGTON CO  CLOUDY    60  45  57 N14       30.26R
LIMON CO       CLOUDY    54  43  66 NW8       30.32S
$$

...UNOFFICIAL OBSERVATIONS...

CITY           SKY/WX    TMP DP  RH WIND       PRES   REMARKS
LENORA KS        N/A     69  32  25 MISG        N/A
NORTON KS      MOSUNNY   70  39  32 N14G22    30.14F
SHARON SPRINGS   N/A     61  50  66 NE14        N/A
TRENTON NEB      N/A     69  32  25 NW6         N/A
KIT CARSON CO    N/A     59  43  55 MISG        N/A
$$



USA.gov is the U.S. government's official web portal to all federal, state and local government web resources and services.